Weather History for Stevens Point, WI

Change the Weather History Date:

Wednesday, December 5, 2012

  Actual Average Record
Temperature  
Mean Temperature 20 °F -  
Max Temperature 29 °F 31 °F 62 °F (2001)
Min Temperature 10 °F 16 °F -2 °F (1984)
Degree Days  
Heating Degree Days 46    
Moisture  
Dew Point 14 °F    
Average Humidity 70    
Maximum Humidity 90    
Minimum Humidity 53    
Precipitation  
Precipitation 0.00 in - - ()
Sea Level Pressure  
Sea Level Pressure 30.31 in    
Wind  
Wind Speed 4 mph (SE)    
Max Wind Speed 10 mph    
Max Gust Speed -    
Visibility 10 miles    
Events      
Averages and records for this station are not official NWS values.
T = Trace of Precipitation, MM = Missing Value Source: NWS Daily Summary

Daily Weather History Graph

Daily Weather History Graph

Search for Another Location

Airport:

Trip Planner

Search our weather history database for the weather conditions in past years. The results will help you decide how hot, cold, wet, or windy it might be!

Date:

Astronomy

Dec. 05, 2012 Rise Set
Actual Time 7:19 AM CST 4:18 PM CST
Civil Twilight 6:46 AM CST 4:51 PM CST
Nautical Twilight 6:09 AM CST 5:28 PM CST
Astronomical Twilight 5:34 AM CST 6:03 PM CST
Moon 11:20 PM CST (12/5) 11:32 AM CST (12/5)
Length of Visible Light 10h 05m
Length of Day
8h 58m
Waning Gibbous, 59% of the Moon is Illuminated
Dec 5
Waning Gibbous
Dec 6
Last Quarter
Dec 13
New
Dec 19
First Quarter
Dec 28
Full

Hourly Weather History & Observations

Time (CST) Temp. Windchill Dew Point Humidity Pressure Visibility Wind Dir Wind Speed Gust Speed Precip Events Conditions
12:15 AM 19.4 °F 14.3 °F 9.5 °F 65% 30.33 in 10.0 mi NW 3.5 mph - N/A   Clear
12:35 AM 19.0 °F - 9.3 °F 66% 30.34 in 10.0 mi Calm Calm - N/A   Clear
12:55 AM 18.9 °F 13.7 °F 9.5 °F 67% 30.35 in 10.0 mi WNW 3.5 mph - N/A   Clear
1:15 AM 18.5 °F 13.3 °F 9.5 °F 68% 30.37 in 10.0 mi WNW 3.5 mph - N/A   Clear
1:35 AM 18.5 °F - 9.9 °F 69% 30.38 in 10.0 mi Calm Calm - N/A   Clear
1:55 AM 18.1 °F - 10.2 °F 71% 30.39 in 10.0 mi Calm Calm - N/A   Clear
2:15 AM 18.1 °F - 10.4 °F 72% 30.40 in 10.0 mi Calm Calm - N/A   Clear
2:35 AM 17.6 °F - 10.0 °F 72% 30.39 in 10.0 mi Calm Calm - N/A   Clear
2:55 AM 17.4 °F - 10.4 °F 74% 30.39 in 10.0 mi Calm Calm - N/A   Clear
3:15 AM 17.4 °F - 10.8 °F 75% 30.39 in 10.0 mi Calm Calm - N/A   Clear
3:35 AM 17.1 °F - 10.4 °F 75% 30.39 in 10.0 mi Calm Calm - N/A   Clear
3:55 AM 15.1 °F - 9.9 °F 80% 30.39 in 10.0 mi Calm Calm - N/A   Clear
4:15 AM 14.9 °F - 9.9 °F 80% 30.39 in 10.0 mi Calm Calm - N/A   Clear
4:35 AM 14.5 °F - 9.5 °F 80% 30.40 in 10.0 mi Calm Calm - N/A   Clear
4:55 AM 13.6 °F - 9.3 °F 83% 30.40 in 10.0 mi Calm Calm - N/A   Clear
5:15 AM 13.6 °F - 9.5 °F 84% 30.41 in 10.0 mi Calm Calm - N/A   Clear
5:35 AM 13.8 °F 8.0 °F 10.0 °F 85% 30.41 in 10.0 mi NW 3.5 mph - N/A   Clear
5:55 AM 12.0 °F - 8.4 °F 85% 30.41 in 10.0 mi Calm Calm - N/A   Clear
6:15 AM 12.2 °F - 9.0 °F 87% 30.41 in 10.0 mi Calm Calm - N/A   Clear
6:35 AM 10.2 °F - 7.7 °F 90% 30.42 in 10.0 mi Calm Calm - N/A   Clear
6:55 AM 11.7 °F - 8.8 °F 88% 30.42 in 10.0 mi Calm Calm - N/A   Clear
8:55 AM 17.2 °F - 11.8 °F 79% 30.42 in 10.0 mi Calm Calm - N/A   Clear
9:15 AM 18.7 °F - 12.0 °F 75% 30.42 in 10.0 mi Calm Calm - N/A   Clear
9:35 AM 20.1 °F - 13.6 °F 76% 30.42 in 10.0 mi Calm Calm - N/A   Clear
9:55 AM 22.1 °F 17.4 °F 14.5 °F 73% 30.42 in 10.0 mi ENE 3.5 mph - N/A   Clear
10:15 AM 22.8 °F 16.7 °F 15.3 °F 73% 30.42 in 10.0 mi East 4.6 mph - N/A   Clear
10:35 AM 24.6 °F 15.8 °F 14.9 °F 67% 30.41 in 10.0 mi East 8.1 mph - N/A   Clear
10:55 AM 25.9 °F 16.6 °F 14.4 °F 62% 30.40 in 10.0 mi East 9.2 mph - N/A   Clear
11:15 AM 26.8 °F 19.3 °F 14.9 °F 61% 30.40 in 10.0 mi ESE 6.9 mph - N/A   Clear
11:35 AM 26.6 °F 17.5 °F 13.8 °F 59% 30.38 in 10.0 mi ESE 9.2 mph - N/A   Clear
11:55 AM 27.1 °F 17.5 °F 14.0 °F 58% 30.38 in 10.0 mi ESE 10.4 mph - N/A   Clear
12:15 PM 27.3 °F 18.4 °F 14.2 °F 58% 30.38 in 10.0 mi SE 9.2 mph - N/A   Clear
12:35 PM 28.6 °F 19.9 °F 14.7 °F 56% 30.36 in 10.0 mi ESE 9.2 mph - N/A   Clear
12:55 PM 28.8 °F 19.5 °F 14.4 °F 55% 30.35 in 10.0 mi ESE 10.4 mph - N/A   Clear
1:15 PM 28.4 °F 20.4 °F 14.0 °F 55% 30.34 in 10.0 mi South 8.1 mph - N/A   Clear
1:35 PM 28.8 °F 20.2 °F 14.4 °F 55% 30.33 in 10.0 mi SE 9.2 mph - N/A   Clear
1:55 PM 28.9 °F 19.8 °F 14.7 °F 55% 30.32 in 10.0 mi ESE 10.4 mph - N/A   Clear
2:15 PM 28.6 °F 20.7 °F 14.5 °F 56% 30.32 in 10.0 mi SE 8.1 mph - N/A   Clear
2:35 PM 28.4 °F 20.4 °F 14.4 °F 56% 30.31 in 10.0 mi SE 8.1 mph - N/A   Clear
2:55 PM 29.1 °F 20.6 °F 14.0 °F 53% 30.31 in 10.0 mi SE 9.2 mph - N/A   Clear
3:15 PM 28.6 °F 19.3 °F 14.0 °F 54% 30.29 in 10.0 mi SE 10.4 mph - N/A   Clear
3:35 PM 27.5 °F 20.2 °F 14.7 °F 59% 30.30 in 10.0 mi SE 6.9 mph - N/A   Clear
3:55 PM 26.8 °F 19.3 °F 14.9 °F 61% 30.29 in 10.0 mi ESE 6.9 mph - N/A   Clear
4:15 PM 25.9 °F 20.3 °F 14.9 °F 63% 30.28 in 10.0 mi ESE 4.6 mph - N/A   Clear
4:35 PM 26.1 °F 18.4 °F 15.3 °F 64% 30.28 in 10.0 mi ESE 6.9 mph - N/A   Clear
4:55 PM 25.5 °F 19.9 °F 15.3 °F 65% 30.27 in 10.0 mi ESE 4.6 mph - N/A   Clear
5:15 PM 25.0 °F 19.3 °F 15.4 °F 67% 30.26 in 10.0 mi ESE 4.6 mph - N/A   Clear
5:35 PM 24.8 °F 19.1 °F 15.8 °F 69% 30.26 in 10.0 mi SE 4.6 mph - N/A   Clear
6:15 PM 25.5 °F 17.8 °F 16.3 °F 68% 30.23 in 10.0 mi SE 6.9 mph - N/A   Scattered Clouds
6:35 PM 25.7 °F 18.0 °F 16.3 °F 68% 30.22 in 10.0 mi SE 6.9 mph - N/A   Scattered Clouds
6:55 PM 26.2 °F 18.6 °F 16.5 °F 67% 30.22 in 10.0 mi SE 6.9 mph - N/A   Overcast
7:15 PM 26.4 °F 18.9 °F 16.7 °F 67% 30.21 in 10.0 mi SE 6.9 mph - N/A   Overcast
7:35 PM 26.8 °F 20.2 °F 17.6 °F 68% 30.21 in 10.0 mi SE 5.8 mph - N/A   Overcast
7:55 PM 27.0 °F 19.5 °F 18.1 °F 69% 30.20 in 10.0 mi SE 6.9 mph - N/A   Overcast
8:15 PM 27.3 °F 19.1 °F 18.7 °F 70% 30.18 in 10.0 mi SE 8.1 mph - N/A   Overcast
8:55 PM 27.5 °F 20.2 °F 20.1 °F 74% 30.17 in 10.0 mi SE 6.9 mph - N/A   Mostly Cloudy
9:15 PM 27.7 °F 18.8 °F 20.8 °F 75% 30.16 in 10.0 mi SE 9.2 mph - N/A   Mostly Cloudy
9:35 PM 28.0 °F 19.3 °F 21.2 °F 76% 30.16 in 10.0 mi SSE 9.2 mph - N/A   Overcast
9:55 PM 28.4 °F 20.4 °F 21.9 °F 77% 30.16 in 10.0 mi SSE 8.1 mph - N/A   Overcast
10:15 PM 28.4 °F 20.4 °F 22.1 °F 77% 30.15 in 10.0 mi SSE 8.1 mph - N/A   Overcast
10:35 PM 28.8 °F 20.2 °F 22.5 °F 77% 30.14 in 10.0 mi SSE 9.2 mph - N/A   Overcast
10:55 PM 28.9 °F 21.1 °F 22.8 °F 78% 30.14 in 10.0 mi SSE 8.1 mph - N/A   Overcast
11:15 PM 29.3 °F 21.5 °F 23.0 °F 77% 30.14 in 10.0 mi SSE 8.1 mph - N/A   Overcast
11:35 PM 29.3 °F 20.8 °F 23.0 °F 77% 30.13 in 10.0 mi SSE 9.2 mph - N/A   Overcast
11:55 PM 29.3 °F 20.8 °F 23.4 °F 78% 30.12 in 10.0 mi SSE 9.2 mph - N/A   Overcast